Regional Weather Roundup
Issued by NWS Sterling, VA

Home | Current Version | Previous Version | Text Only | Print | Product List | Glossary On
Versions: 1 2 3 4 5 6 7 8 9 10 11 12 13 14 15 16 17 18 19 20 21 22 23 24 25 26 27 28 29 30 31 32 33 34 35 36 37 38 39 40 41 42 43 44 45 46 47 48 49 50
000
ASUS41 KLWX 010810
RWRLWX

REGIONAL WEATHER ROUNDUP
NATIONAL WEATHER SERVICE BALTIMORE MD/WASHINGTON DC
400 AM EDT MON SEP 01 2014

Note: "FAIR" indicates few or no clouds below 12,000 feet
with no significant weather and/or obstructions to visibility.
 TC=TEMPERATURE CELSIUS

 * =Non NWS site. Station does not report precipitation (e.g. rain,
    snow, etc.), thunder, or fog.

DCZ001-MDZ009-015-VAZ040>042-051-053>054-010900-
WASHINGTON METRO

CITY           SKY/WX    TMP DP  RH WIND       PRES   REMARKS
WASHINGTON NAT MOCLDY    77  71  82 S3        30.01F
DULLES         MOCLDY    72  71  97 CALM      30.02F
ANDREWS AFB    MOCLDY    73  72  99 SW3       30.01F
QUANTICO       CLOUDY    75  72  90 W3        30.02S
COLLEGE PARK*  MOCLDY    73  73 100 CALM      30.01S
LEESBURG*      CLOUDY    72  72 100 CALM      30.03S
MANASSAS*      CLOUDY    73  72  94 CALM      30.01F
GAITHERSBURG*  MOCLDY    72  70  94 CALM      30.06S

$$

MDZ006>007-011-014-010900-
BALTIMORE METRO

CITY           SKY/WX    TMP DP  RH WIND       PRES   REMARKS
BWI AIRPORT    MOCLDY    73  72  96 CALM      30.00F
MD SCIENCE CTR   N/A     75  72  90 MISG      30.01S
MARTIN STATE   CLOUDY    73  73 100 CALM      30.02S
ANNAPOLIS      CLOUDY    75  72  90 CALM      29.99F
FORT MEADE*    MOCLDY    70  70 100 CALM      30.03F

$$

MDZ012-015-019>023-010900-
MARYLAND EASTERN SHORE

CITY           SKY/WX    TMP DP  RH WIND       PRES   REMARKS
OCEAN CITY     PTCLDY    79  74  84 SW8       30.02S
SALISBURY      MOCLDY    79  74  84 SW6       30.02R
BAY BRIDGE AP*   N/A     73  73 100 CALM      30.00F
CAMBRIDGE*     CLOUDY    77  73  88 CALM      30.01S
EASTON*        CLOUDY    75  75 100 CALM      30.04F

$$

MDZ017>025-010900-
SOUTHERN MARYLAND

CITY           SKY/WX    TMP DP  RH WIND       PRES   REMARKS
PATUXENT RIVER MOCLDY    77  72  84 SW9       30.02S THUNDER
ST INIGOES     TSTM      76  72  87 SW8       30.02R
LEONARDTOWN*   PTCLDY    73  70  88 SW3       30.04S

$$

MDZ003>005-010900-
NORTH CENTRAL MARYLAND

CITY           SKY/WX    TMP DP  RH WIND       PRES   REMARKS
FREDERICK*     CLOUDY   N/A N/A N/A CALM      30.04F
HAGERSTOWN APT CLOUDY    73  70  90 CALM      30.02F
WESTMINSTER*   MOCLDY    72  70  94 SW3       30.04S

$$

MDZ501>502-010900-
WESTERN MARYLAND

CITY           SKY/WX    TMP DP  RH WIND       PRES   REMARKS
OAKLAND*       CLOUDY    64 N/A N/A SW3       30.12F HAZE
CUMBERLAND*    MOCLDY    70  66  88 CALM      30.06F

$$

VAZ025>031-010900-
SHENANDOAH VALLEY

CITY           SKY/WX    TMP DP  RH WIND       PRES   REMARKS
WINCHESTER*    CLOUDY    72  70  94 CALM      30.03F
STAUNTON*      CLOUDY    71  67  87 CALM      30.09S

$$

WVZ021-048>050-054>055-010900-
EASTERN WEST VIRGINIA PANHANDLE

CITY           SKY/WX    TMP DP  RH WIND       PRES   REMARKS
MARTINSBURG    CLOUDY    73  69  87 S3        30.03S
PETERSBURG*    NOT AVBL

$$

VAZ036>039-050-010900-
CENTRAL FOOTHILLS

CITY           SKY/WX    TMP DP  RH WIND       PRES   REMARKS
CHARLOTTESVILL CLOUDY    74  71  91 S3        30.04S
ORANGE*        CLOUDY    73  72  94 S3        30.04S

$$

VAZ055>057-010900-
NORTH AND CENTRAL PIEDMONT

CITY           SKY/WX    TMP DP  RH WIND       PRES   REMARKS
FREDERICKSBRG* CLOUDY    75  75 100 CALM      30.01F
STAFFORD*      CLOUDY    72  72 100 CALM      30.06S FOG

$$

NCZ024-NYZ072-PAZ021-071-VAZ022-071-010900-
OTHER REGIONAL OBSERVATIONS

CITY           SKY/WX    TMP DP  RH WIND       PRES   REMARKS
NEW YORK CITY  CLOUDY    75  71  87 W6        30.01S
PHILADELPHIA   CLOUDY    74  72  93 SW5       30.00F
PITTSBURGH     CLOUDY    70  68  93 CALM      30.03S
ROANOKE        CLOUDY    75  69  81 W7        30.11S
RICHMOND       MOCLDY    78  72  81 SW5       30.04S
RALEIGH        PTCLDY    75  71  87 SW6       30.08S

$$

ANZ530>537-010900-
MARINE OBSERVATIONS

STATION/POSITION TIME  TEMP    WIND        PRES
                       AIR SEA DIR/SP/G
                 (UTC) (F)     (DEG/KT/KT) (MB)
THOMAS PT LIGHT  0800   76 78  260/  4/  4 1016.8F
BALT KEY BRIDGE  0800          270/  3/  4 1015.8F
COVE POINT       0800   77     250/  6/  7 1016.1F
LEWISETTA        0800   78 80  260/  9/ 11 1016.6R
SOLOMONS ISLAND  0800      80                N/A
PINEY POINT      0800          260/ 12/ 17   N/A

$$



USA.gov is the U.S. government's official web portal to all federal, state and local government web resources and services.